Flag for Dominican Republic Weather past 2 weeks in Santiago de los Caballeros, Dominican Republic

Now
82 °F

Scattered clouds.


Feels Like: 85 °F
Forecast: 70 / 84 °F
Wind: No wind

Location: Santiago

Current Time: Jan 27, 2015 at 1:04:38 PM

Latest Report: Jan 27, 2015 at 12:00 PM


Visibility: N/A

Pressure: 30.01 "Hg

Humidity: 62%

Dew point: 68 °F

Location of Santiago de los CaballerosLocation

Historic Weather in Santiago de los Caballeros — Graph

°F

Santiago de los Caballeros temperature yesterday

Maximum temperature yesterday: 86 °F (at 3:00 PM)
Minimum temperature yesterday: 68 °F (at 2:00 AM)
Average temperature yesterday: 77 °F

Past Weeks' High & Low Weather Summary

 TemperatureHumidityPressure
High86 °F (Jan 14, 3:00 PM)100% (Jan 12, 10:00 PM)30.09 "Hg (Jan 12, 10:00 PM)
Low61 °F (Jan 21, 6:00 AM)52% (Jan 23, 4:00 PM)29.89 "Hg (Jan 25, 5:00 PM)
Average75 °F83%30.00 "Hg
* Reported Jan 12 12:00 Noon — Jan 27 12:00 Noon, Santiago de los Caballeros, Weather by CustomWeather, © 2014

Note: Actual official high and low records may vary slightly from our data, if they occured in-between our weather recording intervals... More about our weather records

Advertising

Santiago de los Caballeros weather history for previous 24 hours

 ConditionsComfort  
Time TempWeatherWind HumidityBarometerVisibility
12:00 PM
Jan 27
82 °FScattered clouds.No wind62%30.01 "HgN/A
11:00 AM79 °FPassing clouds.5 mph74%30.01 "HgN/A
10:00 AM77 °FPassing clouds.3 mph79%30.01 "HgN/A
9:00 AM72 °FScattered clouds.No wind88%30.01 "HgN/A
8:00 AM70 °FScattered clouds.No wind100%29.98 "HgN/A
7:00 AM68 °FPassing clouds.No wind100%29.95 "HgN/A
6:00 AM70 °FPassing clouds.No wind100%29.95 "HgN/A
5:00 AM72 °FPassing clouds.No wind100%29.92 "HgN/A
4:00 AM73 °FPassing clouds.No wind94%29.95 "HgN/A
3:00 AM77 °FPassing clouds.6 mph83%29.95 "HgN/A
2:00 AM73 °FPassing clouds.No wind89%29.98 "HgN/A
1:00 AM73 °FPassing clouds.No wind89%29.95 "HgN/A
12:00 AM73 °FPassing clouds.No wind83%29.95 "HgN/A
11:00 PM
Jan 26
75 °FPassing clouds.No wind78%29.98 "HgN/A
10:00 PM77 °FPassing clouds.5 mph74%29.95 "HgN/A
9:00 PM77 °FPassing clouds.7 mph74%29.95 "HgN/A
8:00 PM79 °FPassing clouds.9 mph70%29.95 "HgN/A
7:00 PM81 °FPassing clouds.9 mph62%29.92 "HgN/A
6:00 PM84 °FPartly sunny.12 mph55%29.89 "HgN/A
5:00 PM86 °FScattered clouds.9 mph52%29.89 "HgN/A
4:00 PM81 °FScattered clouds.7 mph62%29.89 "HgN/A
3:00 PM86 °FPassing clouds.7 mph52%29.89 "HgN/A
2:00 PM84 °FPassing clouds.12 mph55%29.92 "HgN/A
1:00 PM84 °FPassing clouds.12 mph58%29.95 "HgN/A
Weather by CustomWeather, © 2014

See weather overviewHow to use our weather pages